Wind_Speed
16 16 16 16 16 15 15 15 16 16 16 15 15 14 13 12 12 12 13 14 14 14 13 12 11 10 9 9 9 9 10 10 10 9 9 10 10 11 11 10 8 6 4
15 15 15 15 15 14 13 13 13 13 13 12 12 12 12 12 11 11 11 11 12 12 12 12 11 10 10 10 10 10 10 10 10 10 10 10 11 11 12 11 9 7 4
15 14 14 13 13 12 10 10 10 9 9 9 9 10 10 11 11 10 10 10 10 10 11 11 11 10 10 10 10 10 11 11 12 12 12 12 12 12 12 11 10 8 6
15 14 13 12 12 11 9 9 8 8 8 8 8 8 9 9 9 10 9 9 9 9 10 11 11 11 11 10 10 11 11 11 12 12 12 12 13 12 12 12 11 9 8
13 13 12 11 11 10 9 8 8 7 7 7 8 8 8 8 8 8 8 8 8 9 9 10 10 11 11 11 11 11 11 11 11 12 12 12 12 13 13 13 13 11 10
9 10 9 9 9 8 8 8 7 7 7 7 7 7 7 7 7 8 8 8 8 8 9 10 10 11 11 12 12 11 11 11 11 11 12 12 12 13 14 14 13 13 12
5 6 6 5 5 5 5 6 6 6 6 7 7 7 8 8 8 8 8 8 8 8 9 9 10 10 11 11 12 12 12 12 12 12 11 11 12 13 14 14 14 13 13
3 3 3 2 2 3 4 4 5 6 7 7 8 8 9 10 10 10 10 9 9 9 9 9 10 10 10 11 12 12 12 12 12 12 12 11 12 13 14 14 14 14 14
6 4 2 1 2 4 5 6 6 7 7 8 9 9 10 11 12 12 12 11 11 10 10 10 10 10 10 11 12 13 13 13 13 13 13 12 13 13 14 15 15 15 15
9 7 5 4 4 5 6 8 9 9 9 9 10 10 10 11 12 13 13 12 11 11 11 11 10 11 11 11 12 14 15 14 14 14 14 14 14 15 15 15 16 16 16
11 9 8 7 6 7 8 9 11 11 11 11 11 11 11 11 12 12 13 12 12 12 12 12 12 12 12 13 13 14 16 16 16 15 15 15 15 16 16 16 16 16 16
13 12 11 10 10 10 11 12 12 12 12 12 11 12 12 13 13 13 13 13 13 13 13 13 14 14 14 14 14 15 17 18 18 16 16 16 16 17 18 18 18 17 17
15 15 14 14 14 15 15 15 15 14 13 13 13 14 15 15 14 14 14 15 15 15 15 15 15 16 16 16 16 16 17 18 18 18 17 18 18 19 20 20 20 19 17
17 18 17 18 18 18 18 17 17 16 15 15 16 17 17 17 17 17 17 17 17 18 17 17 17 17 17 17 16 17 18 18 18 18 18 18 19 21 22 22 21 20 19
18 18 19 19 20 20 21 20 20 19 18 19 19 20 20 21 21 21 21 21 21 21 20 20 20 19 18 17 17 18 18 18 18 18 19 20 20 21 22 22 22 21 20
19 19 20 20 21 22 22 23 23 22 22 22 22 24 25 25 26 27 27 26 26 25 25 23 22 21 20 20 19 19 19 18 18 19 20 21 21 22 22 22 22 21 21
22 22 22 22 23 24 25 25 25 25 24 25 25 26 28 29 30 31 32 32 31 30 28 27 26 24 23 22 21 20 19 19 19 20 21 21 21 22 22 21 21 20 20
26 26 26 26 26 27 28 29 28 27 27 27 28 29 31 33 34 34 35 36 35 35 33 30 28 26 25 24 22 21 21 21 21 21 21 21 21 20 20 21 21 21 20
30 29 30 31 31 31 32 32 31 31 30 30 30 31 32 34 35 37 37 37 38 37 35 33 30 28 27 26 24 23 22 22 22 22 22 22 21 21 20 21 22 22 21
33 33 34 35 35 35 35 35 35 34 33 33 33 34 34 36 38 38 38 38 38 36 35 34 32 29 28 27 26 25 24 23 22 22 22 22 22 22 23 22 22 23 23
36 36 37 38 38 39 38 38 37 36 35 35 35 36 37 38 40 41 39 40 40 38 38 35 33 30 29 27 27 26 25 24 22 22 22 22 22 23 23 24 24 24 24
39 39 40 41 41 41 41 40 38 37 36 37 38 39 40 41 42 43 43 42 41 41 39 36 34 31 30 29 29 28 26 25 24 22 22 22 23 23 24 25 26 26 26
43 42 42 42 42 42 41 40 39 39 38 38 39 40 42 43 44 45 44 44 43 42 40 38 35 33 31 30 30 29 27 26 25 23 22 22 23 24 25 25 26 27 27
44 44 43 43 42 41 41 40 40 40 40 41 42 43 44 45 46 46 46 46 46 45 43 40 37 34 32 32 31 30 28 27 27 26 24 23 23 24 25 27 27 28 28
44 44 44 43 41 40 40 39 40 40 41 42 44 45 46 47 48 48 48 48 46 45 43 41 38 36 34 32 31 31 29 29 28 27 26 26 25 25 25 27 29 29 30
43 43 43 42 41 40 40 40 41 42 43 45 46 47 48 49 49 49 48 46 45 43 41 40 37 36 35 33 33 32 30 29 29 29 28 28 28 28 28 28 29 29 30
Wind_Direction
101 98 96 94 91 87 86 86 87 85 81 77 73 69 66 63 59 55 51 49 47 46 45 46 45 39 29 18 12 6 3 1 0 0 1 0 359 357 355 353 356 357 356
101 99 97 95 92 89 86 84 83 81 77 72 67 62 59 58 56 52 47 44 41 39 37 37 37 37 30 20 14 9 5 2 0 360 359 358 356 354 352 353 353 351 347
99 98 96 94 92 90 87 83 79 75 70 64 59 55 52 52 51 48 42 38 34 32 30 28 27 29 27 22 15 11 8 5 2 1 360 358 355 353 351 351 349 347 342
96 94 92 90 88 85 79 73 67 63 58 54 49 48 47 46 44 42 37 31 26 21 20 20 19 19 20 19 15 10 8 6 4 4 4 1 356 355 353 351 348 345 340
98 93 88 84 80 75 68 60 53 50 48 45 41 39 37 35 32 29 25 22 17 12 8 8 8 9 10 12 11 9 5 3 1 1 2 5 358 358 355 353 351 345 337
108 98 90 82 75 68 60 51 42 35 30 27 24 20 17 13 11 8 6 6 5 2 359 358 357 358 359 1 3 4 4 3 359 356 355 360 352 353 351 349 350 349 345
127 113 98 83 71 60 48 37 28 18 10 5 0 355 352 350 349 347 346 346 346 347 348 346 346 347 348 349 351 353 356 359 359 358 353 352 343 344 345 344 343 342 344
189 148 114 81 42 22 13 5 359 354 349 345 340 335 332 330 330 330 330 330 331 331 332 334 335 336 336 338 339 342 345 348 349 351 350 348 336 338 337 335 334 333 334
241 239 232 281 326 332 336 336 334 332 332 331 328 325 321 319 319 319 319 319 319 319 320 322 324 325 327 328 329 331 333 336 339 339 340 339 332 333 330 327 325 325 326
251 255 260 277 297 311 320 321 318 318 317 318 319 319 317 316 315 315 315 315 313 312 310 310 314 319 320 320 321 323 323 326 330 331 332 330 329 328 325 323 319 317 317
253 257 261 270 284 301 314 317 313 310 309 308 310 313 314 316 317 316 315 315 313 312 308 304 306 311 313 313 314 316 314 316 320 323 326 326 327 326 323 321 317 313 310
253 260 264 271 282 293 303 311 312 308 304 302 304 307 309 312 316 317 317 316 315 313 311 306 304 305 305 305 306 306 307 308 310 313 319 323 326 326 324 321 317 312 306
257 264 268 272 281 290 296 302 304 306 302 300 301 304 306 307 310 314 313 314 313 312 311 307 300 297 297 298 298 300 302 303 304 307 311 315 320 322 323 322 320 315 308
262 266 270 275 281 287 292 295 296 297 298 298 301 304 308 311 312 313 312 312 311 310 309 306 303 296 292 292 295 298 300 303 303 303 304 308 313 317 319 320 319 317 312
265 268 272 276 281 285 288 291 292 294 297 300 303 304 308 312 315 315 313 312 310 308 306 304 301 300 296 294 292 293 295 298 301 303 304 305 308 312 314 315 317 317 314
270 271 274 277 282 285 288 290 293 294 298 300 303 306 308 311 314 315 313 311 308 305 303 301 297 297 293 290 289 289 290 293 296 299 301 303 306 308 310 312 313 314 313
272 275 278 281 284 286 288 290 293 296 297 298 302 306 308 309 311 312 311 310 307 304 300 298 296 294 290 286 283 284 285 287 291 295 298 300 302 305 307 310 311 311 311
272 276 279 282 284 286 288 290 293 295 296 297 299 303 307 309 309 310 311 309 305 302 298 295 292 289 287 285 281 280 281 283 288 293 296 298 301 302 304 307 308 309 309
270 274 278 280 283 285 287 289 291 293 294 295 296 298 302 306 307 307 308 311 309 306 300 293 288 285 285 285 282 280 279 279 284 289 293 295 296 297 299 303 306 308 309
269 273 276 278 280 282 285 286 288 289 290 291 292 294 296 299 302 304 307 311 312 310 307 298 291 286 286 288 287 284 279 276 279 283 286 288 289 293 296 299 302 305 307
268 271 273 274 276 279 282 283 285 286 287 287 288 289 292 296 299 302 304 307 308 309 308 302 294 288 286 287 289 288 284 278 276 278 281 283 284 286 290 294 297 300 303
268 269 270 272 274 277 279 281 282 283 283 283 285 287 290 293 295 297 300 302 305 307 307 303 295 289 286 285 288 288 284 279 275 275 276 278 281 283 285 288 292 295 298
266 268 269 272 274 276 277 278 279 280 281 282 283 286 288 290 292 295 298 299 301 303 303 302 294 288 285 284 285 285 282 278 276 276 275 275 278 282 284 285 288 291 294
267 268 269 271 273 273 274 275 276 278 280 281 283 284 286 289 291 293 295 297 298 299 299 298 293 287 281 279 280 280 279 277 275 277 277 275 277 280 284 287 289 290 291
265 266 268 269 270 270 271 273 274 276 278 280 283 285 287 289 291 292 294 295 296 296 295 294 290 283 277 275 276 276 275 275 274 276 278 280 280 280 281 285 287 288 288
263 264 265 267 268 269 271 272 274 277 279 281 283 285 287 289 291 292 293 293 293 292 291 289 287 279 274 271 272 272 272 273 273 276 278 280 284 286 287 286 286 287 287
Height
5916 5916 5917 5917 5917 5918 5919 5919 5919 5919 5919 5918 5918 5918 5917 5916 5915 5913 5912 5911 5910 5909 5908 5907 5906 5905 5904 5904 5903 5903 5902 5902 5901 5901 5900 5900 5899 5899 5899 5899 5898 5898 5898
5919 5919 5919 5920 5920 5921 5921 5921 5921 5921 5921 5921 5920 5920 5919 5918 5917 5915 5914 5913 5912 5911 5909 5908 5907 5906 5906 5905 5904 5903 5903 5902 5902 5901 5901 5900 5900 5899 5899 5898 5898 5898 5898
5921 5921 5922 5922 5922 5923 5923 5923 5923 5923 5922 5922 5921 5921 5920 5919 5918 5917 5916 5914 5913 5912 5911 5910 5909 5908 5907 5906 5905 5904 5903 5903 5902 5902 5901 5900 5900 5899 5899 5898 5898 5898 5898
5923 5924 5924 5924 5924 5925 5925 5925 5925 5924 5924 5923 5922 5922 5921 5920 5919 5918 5917 5916 5914 5913 5912 5911 5910 5908 5908 5907 5906 5905 5904 5903 5902 5902 5901 5900 5900 5899 5899 5898 5897 5897 5897
5925 5925 5926 5926 5926 5926 5927 5927 5926 5926 5925 5924 5923 5922 5922 5921 5920 5919 5918 5916 5915 5914 5913 5912 5911 5909 5908 5907 5906 5906 5905 5904 5903 5902 5902 5901 5900 5899 5898 5898 5897 5896 5896
5926 5926 5926 5927 5927 5927 5927 5927 5927 5926 5925 5924 5924 5923 5922 5921 5920 5919 5918 5917 5916 5915 5914 5913 5912 5911 5909 5908 5907 5906 5905 5904 5903 5902 5901 5901 5900 5899 5898 5897 5897 5896 5895
5927 5927 5927 5927 5928 5928 5928 5928 5927 5927 5926 5925 5924 5923 5922 5921 5921 5920 5918 5917 5916 5915 5914 5913 5912 5911 5910 5909 5907 5906 5905 5904 5903 5902 5902 5901 5900 5899 5898 5897 5896 5895 5895
5927 5927 5927 5927 5928 5928 5928 5928 5927 5926 5925 5925 5924 5922 5922 5921 5920 5919 5918 5917 5916 5915 5914 5913 5912 5911 5910 5909 5907 5906 5905 5904 5903 5902 5902 5901 5899 5899 5898 5896 5895 5894 5894
5927 5927 5927 5927 5927 5927 5927 5927 5927 5926 5925 5924 5923 5922 5921 5920 5919 5918 5917 5916 5916 5915 5914 5913 5911 5910 5910 5908 5907 5906 5904 5903 5903 5902 5901 5900 5899 5898 5897 5895 5894 5893 5892
5926 5927 5927 5927 5927 5927 5927 5926 5926 5925 5924 5923 5922 5920 5919 5918 5917 5916 5915 5915 5914 5913 5912 5912 5910 5910 5909 5908 5906 5905 5903 5902 5901 5901 5900 5899 5898 5896 5895 5894 5893 5892 5891
5925 5926 5926 5926 5926 5926 5926 5925 5924 5924 5923 5922 5921 5919 5918 5917 5916 5915 5914 5913 5912 5912 5911 5910 5909 5908 5907 5906 5905 5904 5902 5901 5900 5899 5899 5897 5896 5895 5893 5892 5891 5890 5888
5924 5924 5925 5925 5925 5925 5924 5923 5923 5922 5921 5920 5919 5918 5917 5915 5915 5914 5913 5912 5911 5910 5909 5909 5908 5907 5906 5905 5904 5902 5901 5899 5898 5898 5897 5895 5894 5893 5891 5889 5888 5887 5885
5922 5922 5922 5923 5922 5922 5922 5921 5921 5920 5919 5919 5917 5917 5915 5914 5914 5913 5912 5910 5909 5908 5907 5907 5906 5905 5904 5903 5901 5900 5899 5897 5896 5895 5894 5893 5891 5890 5888 5887 5885 5884 5882
5919 5919 5920 5920 5920 5919 5919 5919 5918 5918 5917 5917 5916 5915 5914 5913 5912 5911 5910 5909 5908 5906 5905 5904 5903 5901 5900 5899 5899 5898 5896 5895 5894 5893 5892 5890 5889 5887 5885 5883 5882 5880 5879
5916 5916 5916 5916 5916 5916 5916 5915 5915 5915 5914 5914 5913 5912 5911 5911 5910 5909 5908 5907 5905 5904 5903 5902 5900 5898 5897 5896 5895 5894 5893 5892 5891 5890 5889 5887 5885 5884 5882 5880 5878 5876 5874
5912 5912 5913 5913 5912 5912 5912 5911 5911 5911 5911 5910 5910 5909 5908 5908 5907 5907 5906 5904 5903 5901 5899 5898 5896 5895 5894 5893 5892 5891 5890 5889 5887 5886 5885 5884 5882 5880 5878 5876 5874 5872 5871
5908 5908 5909 5909 5909 5908 5907 5907 5906 5907 5907 5906 5906 5906 5905 5904 5904 5903 5902 5900 5899 5897 5895 5894 5892 5891 5889 5888 5887 5886 5886 5885 5884 5882 5881 5880 5878 5877 5874 5872 5871 5869 5867
5903 5903 5904 5904 5904 5903 5903 5902 5902 5902 5902 5902 5902 5901 5901 5900 5899 5898 5897 5895 5893 5891 5890 5888 5887 5885 5884 5883 5882 5882 5881 5880 5879 5878 5877 5875 5874 5873 5871 5869 5867 5865 5863
5897 5898 5899 5899 5899 5898 5897 5897 5897 5897 5897 5897 5897 5896 5896 5895 5894 5893 5892 5889 5887 5884 5883 5881 5880 5879 5878 5877 5876 5876 5876 5875 5875 5874 5872 5871 5869 5868 5867 5865 5863 5861 5859
5891 5893 5893 5893 5893 5892 5892 5891 5891 5891 5891 5891 5891 5891 5891 5890 5889 5887 5886 5883 5881 5879 5877 5875 5874 5873 5872 5871 5870 5870 5870 5869 5869 5869 5868 5866 5865 5863 5862 5861 5859 5857 5855
5885 5886 5887 5886 5886 5886 5886 5885 5884 5885 5885 5885 5885 5885 5885 5884 5883 5881 5880 5878 5875 5873 5871 5869 5867 5866 5866 5865 5864 5864 5863 5863 5863 5863 5862 5861 5860 5859 5858 5856 5854 5853 5851
5878 5879 5880 5880 5879 5879 5879 5878 5878 5878 5878 5878 5878 5878 5878 5877 5876 5874 5873 5871 5869 5867 5865 5862 5861 5860 5860 5859 5858 5857 5857 5858 5857 5857 5856 5856 5855 5854 5853 5852 5850 5848 5846
5870 5871 5872 5872 5872 5871 5871 5871 5871 5871 5871 5871 5871 5871 5871 5870 5869 5867 5866 5864 5862 5860 5858 5856 5854 5853 5853 5852 5851 5851 5851 5851 5851 5851 5850 5850 5849 5849 5848 5846 5845 5843 5841
5861 5862 5863 5864 5864 5864 5863 5864 5863 5863 5863 5863 5863 5863 5863 5862 5861 5860 5858 5857 5855 5852 5850 5849 5847 5846 5846 5846 5845 5844 5844 5844 5844 5844 5844 5844 5844 5843 5842 5840 5838 5837 5836
5852 5853 5854 5855 5855 5855 5855 5856 5855 5856 5855 5855 5855 5854 5854 5853 5853 5851 5850 5848 5846 5844 5842 5840 5839 5838 5838 5838 5838 5838 5838 5837 5837 5837 5837 5836 5837 5837 5836 5835 5833 5831 5830
5844 5845 5845 5846 5846 5847 5847 5847 5847 5847 5847 5847 5846 5846 5845 5844 5843 5842 5840 5838 5836 5835 5833 5832 5831 5830 5830 5830 5831 5830 5830 5830 5830 5830 5830 5829 5828 5828 5828 5828 5826 5825 5823